Content
SEND FEEDBACK

Daily
Averages
Monthly
Summary
Austria

LINZ, AUSTRIA


Home > Europe > Austria
Elevation: 970 feet     Latitude: 48 14N     Longitude: 014 11E

WEATHER
 
SELECT A DAY
Number of Records: 310,954;   Date Range: 7/1/96 - 7/23/14
 
SHARE

PRINT THIS DATA

[ ← Previous Day ]
WEATHER ALMANAC - MAY 6, 2013
[ Next Day → ]
[ °C ]   °F
Weather ElementAverageHighLow
Temperature62 °F69.8 °F (2:50 pm)55 °F (2:00 am)
Dewpoint55.1 °F59 °F (2:20 pm)50 °F (12:50 am)
Humidity77.6 %88 % (2:50 am)57 % (5:00 pm)
Barometer30.02 in30.13 in (2:00 am)29.94 in (5:00 pm)
Wind Speed12.8 mph20.1 mph (5:00 pm)
Wind Gust27.6 mph (5:20 pm)
Weather ElementAverage
Visibility7.7 mi
Wind DirectionE (89.1 °)

Weather ElementTotal
Precipitation---
Heating Degree Days2.6 (Base 65)
Growing Degree Days12.4 (Base 50)
Averaged from 55 records on May 6, 2013
WEATHER CONDITIONS BREAKOUT
WIND DIRECTION BREAKOUT
WEATHER BY HOUR - MAY 6, 2013
[ °C ]   °F
Local TimeTemperatureDewpointHumidityBarometerVisibilityWind DirectionWind SpeedGust SpeedPrecipitationEventsConditions
12:50 AM55.4 °F50.0 °F82 %30.12 in6.2 miENE (60°)5.8 mphPartly Cloudy
1:20 AM55.4 °F50.0 °F82 %30.12 in6.2 miEast (100°)3.5 mphPartly Cloudy
1:50 AM55.4 °F50.0 °F82 %30.12 in6.2 miEast (100°)5.8 mphPartly Cloudy
2:00 AM55.0 °F50.0 °F78 %30.13 in28.0 miEast (100°)6.7 mph
2:20 AM55.4 °F50.0 °F82 %30.12 in6.2 miEast (90°)6.9 mphScattered Clouds
2:50 AM55.4 °F51.8 °F88 %30.09 in6.2 miEast (90°)8.1 mphOvercast
3:20 AM55.4 °F50.0 °F82 %30.09 in6.2 miEast (90°)8.1 mphOvercast
3:50 AM55.4 °F50.0 °F82 %30.09 inEast (80°)6.9 mphClear
4:20 AM55.4 °F51.8 °F88 %30.06 in6.2 miEast (90°)6.9 mphMostly Cloudy
4:50 AM57.2 °F51.8 °F82 %30.06 in6.2 miEast (90°)6.9 mphMostly Cloudy
5:00 AM56.0 °F51.0 °F80 %30.08 in16.0 miEast (90°)6.7 mphPartly Cloudy
5:20 AM57.2 °F51.8 °F82 %30.06 in6.2 miEast (100°)6.9 mphMostly Cloudy
5:50 AM57.2 °F51.8 °F82 %30.06 in6.2 miEast (80°)8.1 mphMostly Cloudy
6:20 AM57.2 °F53.6 °F88 %30.06 in6.2 miEast (80°)9.2 mphMostly Cloudy
6:50 AM57.2 °F53.6 °F88 %30.06 in6.2 miEast (100°)9.2 mphMostly Cloudy
7:20 AM57.2 °F53.6 °F88 %30.06 in6.2 miEast (80°)10.4 mphMostly Cloudy
7:50 AM57.2 °F53.6 °F88 %30.06 in6.2 miEast (80°)11.5 mphMostly Cloudy
8:00 AM58.0 °F53.0 °F79 %30.08 in12.0 miEast (80°)11.2 mphScattered Clouds
8:20 AM57.2 °F53.6 °F88 %30.06 in6.2 miEast (90°)15.0 mphRainLight Rain Showers
8:50 AM59.0 °F53.6 °F82 %30.06 inEast (90°)13.8 mphClear
9:20 AM59.0 °F55.4 °F88 %30.06 in6.2 miEast (100°)13.8 mphMostly Cloudy
9:50 AM60.8 °F55.4 °F82 %30.06 in6.2 miEast (90°)16.1 mphMostly Cloudy
10:20 AM60.8 °F55.4 °F82 %30.06 in6.2 miEast (90°)16.1 mphMostly Cloudy
10:50 AM62.6 °F55.4 °F77 %30.04 in6.2 miEast (80°)16.1 mphMostly Cloudy
11:00 AM62.0 °F56.0 °F75 %30.05 in9.0 miEast (80°)15.7 mphScattered Clouds
11:20 AM62.6 °F55.4 °F77 %30.06 in6.2 miEast (90°)19.6 mphMostly Cloudy
11:50 AM62.6 °F55.4 °F77 %30.04 in6.2 miEast (90°)17.3 mphMostly Cloudy
12:20 PM62.6 °F57.2 °F82 %30.04 in6.2 miEast (90°)18.4 mphMostly Cloudy
12:50 PM64.4 °F57.2 °F77 %30.01 in6.2 miEast (90°)17.3 mphMostly Cloudy
1:20 PM66.2 °F57.2 °F73 %30.01 in6.2 miEast (100°)17.3 mphMostly Cloudy
1:50 PM66.2 °F57.2 °F73 %30.01 in6.2 miEast (100°)15.0 mph26.5 mphMostly Cloudy
2:00 PM67.0 °F58.0 °F64 %29.99 in16.0 miEast (100°)15.7 mphScattered Clouds
2:20 PM68.0 °F59.0 °F73 %30.01 in6.2 miEast (90°)16.1 mphMostly Cloudy
2:50 PM69.8 °F59.0 °F68 %29.98 in6.2 miEast (90°)17.3 mphMostly Cloudy
3:20 PM69.8 °F59.0 °F68 %29.98 in6.2 miEast (90°)18.4 mphMostly Cloudy
3:50 PM69.8 °F59.0 °F68 %29.98 in6.2 miEast (90°)16.1 mphMostly Cloudy
4:20 PM69.8 °F57.2 °F64 %29.95 in6.2 miEast (100°)18.4 mphMostly Cloudy
4:50 PM69.8 °F57.2 °F64 %29.95 in6.2 miEast (80°)19.6 mphMostly Cloudy
5:00 PM69.0 °F57.0 °F57 %29.94 in19.0 miEast (80°)20.1 mphScattered Clouds
5:20 PM69.8 °F57.2 °F64 %29.95 in6.2 miEast (90°)16.1 mph27.6 mphMostly Cloudy
5:50 PM68.0 °F57.2 °F68 %29.95 in6.2 miEast (90°)12.7 mphMostly Cloudy
6:20 PM68.0 °F57.2 °F68 %29.95 in6.2 miEast (80°)15.0 mphMostly Cloudy
6:50 PM66.2 °F57.2 °F73 %29.95 in6.2 miEast (90°)13.8 mphMostly Cloudy
7:20 PM66.2 °F57.2 °F73 %29.95 in6.2 miEast (90°)16.1 mphMostly Cloudy
7:50 PM64.4 °F57.2 °F77 %29.95 in6.2 miEast (100°)16.1 mphMostly Cloudy
8:00 PM65.0 °F56.0 °F66 %29.94 in19.0 miEast (100°)15.7 mphScattered Clouds
8:20 PM64.4 °F57.2 °F77 %29.95 in6.2 miEast (90°)13.8 mphMostly Cloudy
8:50 PM64.4 °F57.2 °F77 %29.95 in6.2 miEast (90°)12.7 mphMostly Cloudy
9:20 PM64.4 °F57.2 °F77 %29.95 in6.2 miEast (90°)12.7 mphMostly Cloudy
9:50 PM64.4 °F57.2 °F77 %29.95 in6.2 miEast (90°)13.8 mphMostly Cloudy
10:20 PM62.6 °F57.2 °F82 %29.95 in6.2 miEast (90°)10.4 mphMostly Cloudy
10:50 PM62.6 °F57.2 °F82 %29.95 in6.2 miEast (80°)11.5 mphMostly Cloudy
11:00 PM63.0 °F57.0 °F74 %29.95 in12.0 miEast (80°)11.2 mphScattered Clouds
11:20 PM62.6 °F57.2 °F82 %29.98 in6.2 miEast (90°)9.2 mphOvercast
11:50 PM60.8 °F57.2 °F88 %29.95 in6.2 miEast (80°)9.2 mphMostly Cloudy
Hourly data recorded from LOWL, located miles away from Linz, Austria







STORIES FROM OUR PARTNERS